Tracking 19827 objects as of 21-Aug-2019
HD Live streaming from Space Station
objects crossing your sky now

METEOR 2-5 DEB

Track METEOR 2-5 DEB now!
10-day predictions


NORAD ID: 38278
Int'l Code: 1979-095BY
Perigee: 835.1 km
Apogee: 850.2 km
Inclination: 81.2 °
Period: 101.6 minutes
Semi major axis: 7213 km
RCS: 0.007 m2 (small)
Launch date: October 31, 1979
Source: Commonwealth of Independent States (former USSR) (CIS)
Launch site: PLESETSK MISSILE AND SPACE COMPLEX (PKMTR)

Note: This is SATELLITE DEBRIS
aabbcc
Your satellite tracking list
Your tracking list is empty




NASA's NSSDC Master Catalog

Two Line Element Set (TLE):
1 38278U 79095BY  19232.99215458  .00000694  00000-0  33904-3 0  9999
2 38278  81.1951 104.3211 0010484 308.3634 116.6244 14.17009082406041
Source of the keplerian elements: AFSPC